• In Moldova, Republic
  • List of Countries
  • For 7 days
  • Water Temperature
  • Satellite Maps
  • Weather Map
  • Weather Widgets
  • user-avatar
    Login

    Hourly Weather Bregenz

    Today, 21 May, Monday

    Time Temperature Precipitation Wind Pressure Humidity
    00:00 +5°C° 0 mm 2 mps 645 mmHg 91%
    01:00 +5°C° 0 mm 2 mps 645 mmHg 91%
    02:00 +5°C° 0 mm 2 mps 645 mmHg 90%
    03:00 +4°C° 0 mm 2 mps 645 mmHg 90%
    04:00 +4°C° 0 mm 2 mps 644 mmHg 89%
    05:00 +6°C° 0 mm 2 mps 645 mmHg 86%
    06:00 +8°C° 0 mm 1 mps 645 mmHg 83%
    07:00 +9°C° 0 mm 1 mps 645 mmHg 80%
    08:00 +12°C° 0 mm 1 mps 646 mmHg 71%
    09:00 +14°C° 0 mm 1 mps 646 mmHg 62%
    10:00 +16°C° 0 mm 1 mps 647 mmHg 53%
    11:00 +18°C° 0.3 mm 1 mps 647 mmHg 53%
    12:00 +18°C° 0.3 mm 1 mps 647 mmHg 54%
    13:00 +19°C° 0.3 mm 1 mps 647 mmHg 54%
    14:00 +18°C° 0.6 mm 1 mps 646 mmHg 57%
    15:00 +18°C° 0.6 mm 1 mps 646 mmHg 61%
    16:00 +16°C° 0.6 mm 2 mps 645 mmHg 65%
    17:00 +15°C° 0.6 mm 1 mps 645 mmHg 71%
    18:00 +14°C° 0.6 mm 1 mps 645 mmHg 77%
    19:00 +13°C° 0.6 mm 1 mps 644 mmHg 83%
    20:00 +12°C° 0.4 mm 1 mps 644 mmHg 84%
    21:00 +10°C° 0.4 mm 1 mps 644 mmHg 86%
    22:00 +9°C° 0.4 mm 1 mps 644 mmHg 88%
    23:00 +9°C° 0 mm 1 mps 644 mmHg 89%

    Tomorrow, 22 May, Tuesday

    Time Temperature Precipitation Wind Pressure Humidity
    00:00 +7°C° 0 mm 2 mps 644 mmHg 89%
    01:00 +6°C° 0 mm 2 mps 643 mmHg 89%
    02:00 +6°C° 0.1 mm 2 mps 643 mmHg 89%
    03:00 +6°C° 0.1 mm 2 mps 643 mmHg 88%
    04:00 +6°C° 0.1 mm 2 mps 643 mmHg 88%
    05:00 +7°C° 0.2 mm 2 mps 644 mmHg 85%
    06:00 +9°C° 0.2 mm 1 mps 644 mmHg 83%
    07:00 +11°C° 0.2 mm 1 mps 645 mmHg 80%
    08:00 +13°C° 0.1 mm 1 mps 645 mmHg 72%
    09:00 +15°C° 0.1 mm 1 mps 646 mmHg 64%
    10:00 +18°C° 0.1 mm 1 mps 646 mmHg 57%
    11:00 +18°C° 0.5 mm 1 mps 646 mmHg 57%
    12:00 +18°C° 0.5 mm 1 mps 646 mmHg 58%
    13:00 +19°C° 0.5 mm 1 mps 646 mmHg 59%
    14:00 +18°C° 1.1 mm 1 mps 646 mmHg 64%
    15:00 +16°C° 1.1 mm 1 mps 646 mmHg 70%
    16:00 +16°C° 1.1 mm 1 mps 646 mmHg 76%
    17:00 +15°C° 1 mm 1 mps 646 mmHg 80%
    18:00 +14°C° 1 mm 1 mps 646 mmHg 84%
    19:00 +12°C° 1 mm 0 mps 646 mmHg 88%
    20:00 +12°C° 0.5 mm 1 mps 646 mmHg 89%
    21:00 +11°C° 0.5 mm 1 mps 646 mmHg 90%
    22:00 +10°C° 0.5 mm 1 mps 646 mmHg 92%
    23:00 +9°C° 0.2 mm 1 mps 646 mmHg 92%

    Day after tomorrow, 23 May, Wednesday

    Time Temperature Precipitation Wind Pressure Humidity
    00:00 +9°C° 0.2 mm 1 mps 646 mmHg 92%
    01:00 +9°C° 0.2 mm 1 mps 646 mmHg 92%
    02:00 +8°C° 0.2 mm 1 mps 646 mmHg 92%
    03:00 +8°C° 0.2 mm 1 mps 646 mmHg 92%
    04:00 +8°C° 0.2 mm 1 mps 646 mmHg 92%
    05:00 +9°C° 0.1 mm 1 mps 647 mmHg 90%
    06:00 +10°C° 0.1 mm 1 mps 647 mmHg 88%
    07:00 +11°C° 0.1 mm 1 mps 647 mmHg 87%
    08:00 +12°C° 0.3 mm 1 mps 648 mmHg 82%
    09:00 +14°C° 0.3 mm 1 mps 648 mmHg 78%
    10:00 +15°C° 0.3 mm 1 mps 649 mmHg 74%
    11:00 +16°C° 0.8 mm 1 mps 649 mmHg 72%
    12:00 +18°C° 0.8 mm 1 mps 649 mmHg 69%
    13:00 +17°C° 0.8 mm 2 mps 649 mmHg 67%
    14:00 +17°C° 0.8 mm 2 mps 649 mmHg 69%
    15:00 +17°C° 0.8 mm 2 mps 648 mmHg 71%
    16:00 +16°C° 0.8 mm 2 mps 648 mmHg 73%
    17:00 +15°C° 0.9 mm 1 mps 648 mmHg 79%
    18:00 +14°C° 0.9 mm 1 mps 648 mmHg 84%
    19:00 +13°C° 0.9 mm 1 mps 648 mmHg 90%
    20:00 +12°C° 0.3 mm 1 mps 648 mmHg 91%
    21:00 +11°C° 0.3 mm 1 mps 648 mmHg 91%
    22:00 +10°C° 0.3 mm 1 mps 648 mmHg 92%
    23:00 +10°C° 0 mm 1 mps 647 mmHg 92%

    24 May, Thursday

    Time Temperature Precipitation Wind Pressure Humidity
    00:00 +9°C° 0 mm 1 mps 647 mmHg 92%
    01:00 +9°C° 0 mm 1 mps 647 mmHg 91%
    02:00 +9°C° 0 mm 1 mps 647 mmHg 91%
    03:00 +9°C° 0 mm 1 mps 647 mmHg 91%
    04:00 +8°C° 0 mm 1 mps 647 mmHg 91%
    05:00 +10°C° 0.1 mm 1 mps 647 mmHg 89%
    06:00 +11°C° 0.1 mm 1 mps 647 mmHg 87%
    07:00 +11°C° 0.1 mm 0 mps 648 mmHg 85%
    08:00 +13°C° 0.1 mm 0 mps 648 mmHg 79%
    09:00 +14°C° 0.1 mm 0 mps 649 mmHg 73%
    10:00 +18°C° 0.1 mm 1 mps 649 mmHg 66%
    11:00 +19°C° 0.4 mm 1 mps 649 mmHg 64%
    12:00 +20°C° 0.4 mm 1 mps 649 mmHg 62%
    13:00 +20°C° 0.4 mm 1 mps 649 mmHg 60%
    14:00 +19°C° 1 mm 2 mps 649 mmHg 64%
    15:00 +19°C° 1 mm 2 mps 649 mmHg 67%
    16:00 +18°C° 1 mm 2 mps 648 mmHg 71%
    17:00 +18°C° 0.8 mm 1 mps 648 mmHg 76%
    18:00 +16°C° 0.8 mm 1 mps 648 mmHg 81%
    19:00 +14°C° 0.8 mm 0 mps 648 mmHg 86%
    20:00 +13°C° 0.1 mm 1 mps 648 mmHg 88%
    21:00 +12°C° 0.1 mm 1 mps 648 mmHg 89%
    22:00 +11°C° 0.1 mm 1 mps 647 mmHg 91%
    23:00 +10°C° 0 mm 1 mps 647 mmHg 91%

    25 May, Friday

    Time Temperature Precipitation Wind Pressure Humidity
    00:00 +10°C° 0 mm 1 mps 647 mmHg 91%
    01:00 +10°C° 0 mm 1 mps 647 mmHg 91%
    02:00 +9°C° 0 mm 1 mps 647 mmHg 90%
    03:00 +9°C° 0 mm 1 mps 647 mmHg 90%
    04:00 +9°C° 0 mm 1 mps 647 mmHg 90%
    05:00 +10°C° 0 mm 1 mps 647 mmHg 87%
    06:00 +12°C° 0 mm 1 mps 648 mmHg 84%
    07:00 +13°C° 0 mm 1 mps 648 mmHg 82%
    08:00 +15°C° 0 mm 1 mps 649 mmHg 72%
    09:00 +18°C° 0 mm 1 mps 649 mmHg 63%
    10:00 +20°C° 0 mm 1 mps 650 mmHg 54%
    11:00 +21°C° 0 mm 1 mps 650 mmHg 51%
    12:00 +22°C° 0 mm 1 mps 650 mmHg 47%
    13:00 +23°C° 0 mm 2 mps 650 mmHg 44%
    14:00 +21°C° 0.1 mm 2 mps 650 mmHg 45%
    15:00 +21°C° 0.1 mm 2 mps 650 mmHg 46%
    16:00 +21°C° 0.1 mm 2 mps 650 mmHg 47%
    17:00 +21°C° 0.2 mm 1 mps 649 mmHg 55%
    18:00 +19°C° 0.2 mm 1 mps 649 mmHg 63%
    19:00 +18°C° 0.2 mm 1 mps 649 mmHg 71%
    20:00 +15°C° 0 mm 1 mps 649 mmHg 74%
    21:00 +13°C° 0 mm 1 mps 648 mmHg 76%
    22:00 +12°C° 0 mm 1 mps 648 mmHg 79%
    23:00 +11°C° 0 mm 1 mps 648 mmHg 79%

    26 May, Saturday

    Time Temperature Precipitation Wind Pressure Humidity
    00:00 +11°C° 0 mm 1 mps 648 mmHg 78%
    01:00 +11°C° 0 mm 1 mps 648 mmHg 78%
    02:00 +10°C° 0 mm 1 mps 648 mmHg 76%
    03:00 +10°C° 0 mm 1 mps 648 mmHg 75%
    04:00 +10°C° 0 mm 1 mps 647 mmHg 74%
    05:00 +12°C° 0 mm 1 mps 648 mmHg 71%
    06:00 +13°C° 0 mm 1 mps 648 mmHg 68%
    07:00 +15°C° 0 mm 1 mps 649 mmHg 66%
    08:00 +18°C° 0 mm 1 mps 649 mmHg 60%
    09:00 +20°C° 0 mm 1 mps 650 mmHg 53%
    10:00 +22°C° 0 mm 1 mps 650 mmHg 47%
    11:00 +22°C° 0 mm 1 mps 651 mmHg 45%
    12:00 +23°C° 0 mm 2 mps 651 mmHg 44%
    13:00 +24°C° 0 mm 2 mps 651 mmHg 42%
    14:00 +24°C° 0 mm 2 mps 650 mmHg 43%
    15:00 +24°C° 0 mm 2 mps 650 mmHg 44%
    16:00 +24°C° 0 mm 2 mps 650 mmHg 45%
    17:00 +21°C° 0.1 mm 2 mps 650 mmHg 55%
    18:00 +20°C° 0.1 mm 2 mps 649 mmHg 65%
    19:00 +19°C° 0.1 mm 1 mps 649 mmHg 74%
    20:00 +16°C° 0 mm 1 mps 649 mmHg 78%
    21:00 +15°C° 0 mm 1 mps 649 mmHg 82%
    22:00 +13°C° 0 mm 2 mps 649 mmHg 86%
    23:00 +13°C° 0 mm 2 mps 648 mmHg 84%
    Show more